Location: Villingen
(48.0639°N, 8.4609°E)
Time: 05:53:24
(UTC+01:00)

ISS - Pass Details

Date: 08 January 2018
Orbit: 401 x 406 km, 51.6° (Epoch: 17 January)

Event Time Altitude Azimuth Distance (km) Brightness Sun altitude
Exits shadow 06:40:33 32° 313° (NW) 727 -3.1 -15.1°
Maximum altitude 06:41:46 52° 13° (NNE) 510 -3.4 -14.9°
Drops below altitude 10° 06:45:00 10° 91° (E) 1,466 0.2 -14.4°
Sets 06:47:07 0° 96° (E) 2,326 1.8 -14.1°
